Weather History for Indianapolis, IN

Change the Weather History Date:

Saturday, November 3, 2012

  Actual Average (KEYE) Record (KEYE)
Temperature  
Mean Temperature 36 °F 49 °F  
Max Temperature 40 °F 58 °F 75 °F (2003)
Min Temperature 31 °F 40 °F 23 °F (1996)
Degree Days  
Heating Degree Days 30 16  
Month to date heating degree days 47  
Since 1 July heating degree days 439  
Cooling Degree Days 0 0  
Month to date cooling degree days 0  
Year to date cooling degree days 1058  
Moisture  
Dew Point 32 °F    
Average Humidity 84    
Maximum Humidity 89    
Minimum Humidity 78    
Precipitation  
Precipitation 0.13 in 0.13 in 0.42 in (2011)
Month to date precipitation 0.40  
Year to date precipitation 34.41  
Sea Level Pressure  
Sea Level Pressure 30.14 in    
Wind  
Wind Speed 3 mph (NE)    
Max Wind Speed 10 mph    
Max Gust Speed -    
Visibility 10 miles    
Events Rain , Thunderstorm    
T = Trace of Precipitation, MM = Missing Value Source: NWS Daily Summary

Daily Weather History Graph

Daily Weather History Graph

Search for Another Location

Airport:

Trip Planner

Search our weather history database for the weather conditions in past years. The results will help you decide how hot, cold, wet, or windy it might be!

Date:

Astronomy

Nov. 03, 2012 Rise Set
Actual Time 8:16 AM EDT 6:39 PM EDT
Civil Twilight 7:48 AM EDT 7:07 PM EDT
Nautical Twilight 7:16 AM EDT 7:39 PM EDT
Astronomical Twilight 6:44 AM EDT 8:11 PM EDT
Moon 10:20 PM EDT (11/3) 12:20 PM EDT (11/3)
Length of Visible Light 11h 19m
Length of Day
10h 22m
Waning Gibbous, 80% of the Moon is Illuminated
Nov 3
Waning Gibbous
Nov 6
Last Quarter
Nov 13
New
Nov 20
First Quarter
Nov 28
Full

Hourly Weather History & Observations

Time (EDT) Temp. Windchill Dew Point Humidity Pressure Visibility Wind Dir Wind Speed Gust Speed Precip Events Conditions
12:15 AM 33.4 °F 29.1 °F 29.8 °F 87% 30.11 in 10.0 mi North 4.6 mph - N/A   Clear
12:35 AM 34.3 °F 30.2 °F 30.6 °F 86% 30.11 in 10.0 mi North 4.6 mph - N/A   Clear
12:55 AM 34.0 °F 31.0 °F 30.2 °F 86% 30.12 in 10.0 mi North 3.5 mph - N/A   Clear
1:15 AM 33.4 °F - 30.0 °F 87% 30.12 in 10.0 mi Calm Calm - N/A   Clear
1:35 AM 32.5 °F 29.3 °F 29.3 °F 88% 30.12 in 10.0 mi North 3.5 mph - N/A   Clear
1:55 AM 32.4 °F 29.1 °F 29.3 °F 88% 30.12 in 10.0 mi NNE 3.5 mph - N/A   Clear
2:15 AM 33.8 °F - 30.6 °F 88% 30.13 in 10.0 mi Calm Calm - N/A   Clear
2:35 AM 34.7 °F - 30.9 °F 86% 30.13 in 10.0 mi Calm Calm - N/A   Clear
2:55 AM 34.9 °F 30.8 °F 31.1 °F 86% 30.13 in 10.0 mi North 4.6 mph - N/A   Scattered Clouds
3:15 AM 34.7 °F - 31.1 °F 87% 30.14 in 10.0 mi Calm Calm - N/A   Mostly Cloudy
3:35 AM 35.1 °F - 31.6 °F 87% 30.14 in 10.0 mi Calm Calm - N/A   Scattered Clouds
3:55 AM 35.2 °F 31.2 °F 31.6 °F 87% 30.13 in 10.0 mi NNE 4.6 mph - N/A   Scattered Clouds
4:15 AM 34.7 °F 31.8 °F 30.9 °F 86% 30.13 in 10.0 mi North 3.5 mph - N/A   Scattered Clouds
4:35 AM 33.4 °F 30.4 °F 29.8 °F 87% 30.13 in 10.0 mi NNE 3.5 mph - N/A   Clear
4:55 AM 32.9 °F 28.5 °F 29.3 °F 87% 30.12 in 10.0 mi NE 4.6 mph - N/A   Clear
5:15 AM 33.1 °F 30.0 °F 29.8 °F 88% 30.11 in 10.0 mi NE 3.5 mph - N/A   Clear
5:55 AM 31.3 °F 26.6 °F 27.7 °F 87% 30.13 in 10.0 mi ENE 4.6 mph - N/A   Clear
6:15 AM 32.4 °F 29.1 °F 29.5 °F 89% 30.13 in 10.0 mi ENE 3.5 mph - N/A   Clear
6:35 AM 32.4 °F - 29.3 °F 88% 30.14 in 10.0 mi Calm Calm - N/A   Scattered Clouds
6:55 AM 32.5 °F - 29.5 °F 88% 30.15 in 10.0 mi Calm Calm - N/A   Mostly Cloudy
7:15 AM 32.5 °F 29.3 °F 29.7 °F 89% 30.14 in 10.0 mi ENE 3.5 mph - N/A   Scattered Clouds
7:35 AM 33.3 °F - 30.4 °F 89% 30.15 in 10.0 mi Calm Calm - N/A   Mostly Cloudy
7:55 AM 34.0 °F 31.0 °F 30.9 °F 89% 30.16 in 10.0 mi East 3.5 mph - N/A   Overcast
8:15 AM 34.2 °F - 30.9 °F 88% 30.17 in 10.0 mi Calm Calm - N/A   Overcast
8:35 AM 34.7 °F 31.8 °F 31.1 °F 87% 30.17 in 10.0 mi East 3.5 mph - N/A   Overcast
8:55 AM 35.1 °F 30.1 °F 31.1 °F 85% 30.15 in 10.0 mi East 5.8 mph - N/A   Light Drizzle
9:15 AM 35.2 °F 28.8 °F 31.3 °F 85% 30.15 in 10.0 mi East 8.1 mph - N/A Rain Light Rain
9:35 AM 36.0 °F 31.1 °F 32.0 °F 86% 30.15 in 10.0 mi East 5.8 mph - N/A   Overcast
9:55 AM 36.3 °F - 32.0 °F 84% 30.17 in 10.0 mi Calm Calm - N/A   Overcast
10:15 AM 36.9 °F 34.3 °F 31.8 °F 82% 30.19 in 10.0 mi East 3.5 mph - N/A   Overcast
10:35 AM 36.7 °F 29.4 °F 31.6 °F 82% 30.14 in 10.0 mi East 10.4 mph - N/A   Light Drizzle
10:55 AM 37.0 °F 31.6 °F 32.0 °F 82% 30.15 in 10.0 mi East 6.9 mph - N/A Rain Light Rain
11:15 AM 37.4 °F - 32.0 °F 81% 30.21 in 10.0 mi Calm Calm - N/A   Overcast
11:35 AM 37.4 °F 33.8 °F 32.0 °F 81% 30.16 in 10.0 mi NE 4.6 mph - N/A   Overcast
11:55 AM 36.9 °F 33.1 °F 32.0 °F 83% 30.16 in 4.0 mi ESE 4.6 mph - 0.05 in Rain Rain
12:15 PM 37.2 °F 33.6 °F 32.9 °F 84% 30.16 in 7.0 mi East 4.6 mph - 0.03 in Rain Light Rain
12:35 PM 37.2 °F 33.6 °F 33.1 °F 85% 30.14 in 5.0 mi East 4.6 mph - 0.06 in Rain Light Rain
12:55 PM 37.8 °F 35.3 °F 33.8 °F 86% 30.15 in 10.0 mi NE 3.5 mph - 0.06 in   Overcast
1:15 PM 37.8 °F 31.8 °F 33.8 °F 86% 30.14 in 10.0 mi NE 8.1 mph - N/A   Overcast
1:35 PM 38.5 °F 35.0 °F 34.5 °F 86% 30.15 in 7.0 mi ENE 4.6 mph - 0.01 in Rain Rain
1:55 PM 38.5 °F 35.0 °F 34.2 °F 84% 30.15 in 10.0 mi NE 4.6 mph - 0.02 in Rain Light Rain
2:15 PM 38.5 °F 33.4 °F 34.3 °F 85% 30.12 in 10.0 mi ENE 6.9 mph - N/A   Light Drizzle
2:35 PM 38.7 °F 35.2 °F 34.2 °F 84% 30.14 in 10.0 mi ENE 4.6 mph - N/A   Overcast
2:55 PM 38.8 °F 33.8 °F 34.2 °F 83% 30.13 in 10.0 mi NE 6.9 mph - N/A Thunderstorm Overcast
3:15 PM 39.0 °F 35.7 °F 34.2 °F 83% 30.13 in 10.0 mi NE 4.6 mph - N/A   Overcast
3:35 PM 39.2 °F 35.0 °F 34.2 °F 82% 30.14 in 10.0 mi ENE 5.8 mph - N/A   Overcast
3:55 PM 39.2 °F 37.0 °F 34.0 °F 82% 30.14 in 10.0 mi ENE 3.5 mph - N/A   Overcast
4:15 PM 39.6 °F 35.4 °F 34.0 °F 80% 30.14 in 10.0 mi NE 5.8 mph - N/A   Overcast
4:35 PM 40.1 °F 38.0 °F 34.0 °F 79% 30.13 in 10.0 mi ENE 3.5 mph - N/A   Overcast
4:55 PM 40.1 °F 38.0 °F 33.8 °F 78% 30.13 in 10.0 mi ENE 3.5 mph - N/A   Overcast
5:15 PM 40.1 °F 36.1 °F 33.6 °F 78% 30.13 in 10.0 mi ENE 5.8 mph - N/A   Overcast
5:35 PM 40.1 °F 36.9 °F 33.8 °F 78% 30.14 in 10.0 mi NE 4.6 mph - N/A   Overcast
5:55 PM 40.1 °F 36.9 °F 33.8 °F 78% 30.14 in 10.0 mi NNE 4.6 mph - N/A   Overcast
6:15 PM 39.7 °F 36.5 °F 33.8 °F 79% 30.14 in 10.0 mi NE 4.6 mph - N/A   Overcast
6:35 PM 39.4 °F 36.1 °F 33.4 °F 79% 30.14 in 10.0 mi NE 4.6 mph - N/A   Overcast
6:55 PM 39.2 °F 35.9 °F 33.1 °F 79% 30.14 in 10.0 mi NNE 4.6 mph - N/A   Overcast
7:15 PM 39.2 °F - 33.3 °F 79% 30.14 in 10.0 mi Calm Calm - N/A   Overcast
7:35 PM 39.2 °F - 33.4 °F 80% 30.14 in 10.0 mi Calm Calm - N/A   Overcast
7:55 PM 38.8 °F 36.5 °F 33.4 °F 81% 30.14 in 10.0 mi NNE 3.5 mph - N/A   Overcast
8:15 PM 38.8 °F 36.5 °F 33.1 °F 80% 30.15 in 10.0 mi North 3.5 mph - N/A   Overcast
8:35 PM 38.8 °F - 33.1 °F 80% 30.14 in 10.0 mi Calm Calm - N/A   Overcast
8:55 PM 38.7 °F - 32.9 °F 80% 30.14 in 10.0 mi Calm Calm - N/A   Overcast
9:15 PM 37.6 °F 35.1 °F 32.2 °F 81% 30.15 in 10.0 mi North 3.5 mph - N/A   Mostly Cloudy
9:35 PM 37.0 °F - 32.2 °F 83% 30.15 in 10.0 mi Calm Calm - N/A   Mostly Cloudy
9:55 PM 36.9 °F - 32.2 °F 83% 30.15 in 10.0 mi Calm Calm - N/A   Overcast
10:15 PM 37.4 °F 34.9 °F 32.7 °F 83% 30.16 in 10.0 mi NNW 3.5 mph - N/A   Overcast
10:35 PM 36.0 °F 33.3 °F 31.8 °F 85% 30.16 in 10.0 mi NNW 3.5 mph - N/A   Scattered Clouds
10:55 PM 34.7 °F 31.8 °F 31.1 °F 87% 30.16 in 10.0 mi NNW 3.5 mph - N/A   Scattered Clouds
11:15 PM 35.2 °F 30.3 °F 31.8 °F 87% 30.16 in 10.0 mi NNW 5.8 mph - N/A   Mostly Cloudy
11:35 PM 34.9 °F 30.8 °F 31.5 °F 87% 30.16 in 10.0 mi NNW 4.6 mph - N/A   Scattered Clouds
11:55 PM 33.4 °F 29.1 °F 30.2 °F 88% 30.16 in 10.0 mi NNW 4.6 mph - N/A   Clear